[[{"header":{"parameterUnit":"m.s-1","parameterCategory":1,"la1":30.2992,"la2":30.254,"lo1":-89.0895,"lo2":-89.0443,"dy":0.0025,"dx":0.0025,"nx":19,"ny":19,"refTime":"2026-04-22T09:00:00:Z","depth":0,"parameterNumber":2,"parameterNumberName":"U-component_of_WINDS"},"data":[0,0,0,-2.9567,-2.957,-2.9708,-2.9709,-2.9884,-2.9886,0,0,0,0,0,0,0,0,0,0,0,-2.9525,-2.9526,-2.9567,-2.957,-2.9708,-2.9709,-2.9884,-2.9886,0,0,0,0,0,0,0,0,0,0,0,-2.9525,-2.9526,-2.9528,-2.9571,-2.9708,-2.9709,-2.9883,-2.978,0,0,0,0,0,0,0,0,0,0,-2.9645,-2.9607,-2.9526,-2.9528,-2.9571,-2.9708,-2.9709,-2.9775,-2.9786,-2.9821,0,-2.9852,0,-2.9872,-2.9897,-2.9898,0,0,0,-2.957,-2.9597,-2.9635,-2.9528,-2.9573,-2.9708,-2.9646,-2.9781,-2.9794,-2.9836,-2.9854,-2.9861,-2.9875,-2.9898,-2.9899,-3.01,-3.01,0,0,-2.9563,-2.955,-2.9626,-2.9643,-2.9622,-2.9642,-2.965,-2.9789,-2.9808,-2.9855,-2.9865,-2.9877,-2.99,-2.9901,-3.0099,-3.01,0,0,0,-2.9541,-2.9544,-2.9579,-2.9636,-2.9661,-2.9646,-2.9656,-2.9802,-2.9814,-2.9867,-2.9879,-2.9901,-2.9903,-3.0098,-3.0099,-3.0131,0,0,0,-2.9536,-2.9531,-2.9576,-2.9569,-2.9659,-2.9733,-2.9665,-2.9805,-2.9821,-2.9879,-2.9901,-2.9904,-3.0097,-3.0098,-3.0128,-3.0148,0,0,0,-2.9516,-2.9529,-2.9549,-2.9568,-2.9627,-2.9731,-2.9752,-2.9808,-2.9828,-2.9898,-2.9905,-3.0096,-3.0098,-3.0126,-3.0144,-3.0197,0,0,0,-2.9492,-2.9576,-2.9549,-2.9648,-2.9626,-2.9751,-2.9751,-2.9845,-2.9908,-2.9902,-3.0097,-3.0099,-3.0125,-3.0141,-3.0194,-3.0238,-3.0256,0,0,-2.959,-2.9587,-2.9646,-2.9627,-2.9753,-2.973,-2.9862,-2.9932,-2.9951,-3.0049,-3.0054,-3.0129,-3.0144,-3.0196,-3.036,-3.0374,0,0,0,-2.9673,-2.9715,-2.9752,-2.9812,-2.9868,-2.9918,-2.997,-2.9997,-3.0081,-2.9999,-3.0164,-3.0173,-3.0204,-3.0226,-3.0238,-3.0265,-3.0109,-3.0109,-3.0108,-2.9793,-2.9813,-2.9912,-2.9948,-3.0007,-3.006,-3.0109,-3.0154,-3.0156,-3.0195,-3.0224,-3.0321,-3.0346,-3.0355,-3.0383,-3.025,-3.025,-3.025,-3.025,-2.9939,-3.0002,-3.0004,-3.01,-3.012,-3.0202,-3.0257,-3.0256,-3.0334,-3.0301,-3.0329,-3.029,-3.0369,-3.0395,-3.0253,-3.0252,-3.0252,-3.0251,-3.0251,-3.0019,-3.0053,-3.0084,-3.0173,-3.0239,-3.0273,-3.0349,-3.0365,-3.038,-3.0408,-3.044,-3.044,-3.0441,-3.0423,-3.0423,-3.0423,-3.0424,-3.0424,-3.0424,-3.009,-3.0124,-3.0186,-3.0253,-3.0293,-3.0349,-3.0404,-3.0444,-3.0493,-3.0499,-3.0499,-3.0497,-3.0374,-3.0342,-3.043,-3.0429,-3.0428,-3.0427,-3.0427,-3.023,-3.0201,-3.0295,-3.0336,-3.0416,-3.0481,-3.0501,-3.0582,-3.0618,-3.0654,-3.0647,-3.0554,-3.0551,-3.0542,-3.0516,-3.0643,-3.0643,-3.0643,-3.0643,-3.0297,-3.0297,-3.0398,-3.0462,-3.0527,-3.0554,-3.0661,-3.0704,-3.0744,-3.0768,-3.0752,-3.0719,-3.0709,-3.0712,-3.0699,-3.0675,-3.084,-3.084,-3.084,-3.0383,-3.0391,-3.0478,-3.0517,-3.0581,-3.0635,-3.0736,-3.0809,-3.0849,-3.0849,-3.0786,-3.0778,-3.0724,-3.0706,-3.0703,-3.0682,-3.0638,0,0]},{"header":{"parameterUnit":"m.s-1","parameterCategory":1,"la1":30.2992,"la2":30.254,"lo1":-89.0895,"lo2":-89.0443,"dy":0.0025,"dx":0.0025,"nx":19,"ny":19,"refTime":"2026-04-22T09:00:00:Z","depth":0,"parameterNumber":3,"parameterNumberName":"V-component_of_WINDS"},"data":[0,0,0,4.3482,4.3483,4.3508,4.3508,4.356,4.3561,0,0,0,0,0,0,0,0,0,0,0,4.3488,4.3489,4.3482,4.3483,4.3508,4.3508,4.356,4.3561,0,0,0,0,0,0,0,0,0,0,0,4.3488,4.3489,4.349,4.3483,4.3508,4.3508,4.356,4.3534,0,0,0,0,0,0,0,0,0,0,4.3506,4.3524,4.3488,4.349,4.3484,4.3508,4.3508,4.3532,4.3536,4.3558,0,4.3582,0,4.3573,4.3566,4.3566,0,0,0,4.3473,4.3522,4.3517,4.349,4.3484,4.3508,4.3494,4.3534,4.3538,4.3563,4.3583,4.3584,4.3574,4.3566,4.3567,4.3731,4.3732,0,0,4.3472,4.3499,4.3514,4.352,4.3518,4.3493,4.3495,4.3536,4.3559,4.3583,4.3585,4.3574,4.3567,4.3567,4.373,4.3731,0,0,0,4.3475,4.3499,4.3492,4.3518,4.3521,4.3494,4.3496,4.3557,4.3553,4.3585,4.3575,4.3567,4.3568,4.3728,4.373,4.3816,0,0,0,4.3473,4.35,4.3492,4.3509,4.3521,4.354,4.3517,4.355,4.3554,4.3575,4.3567,4.3569,4.3727,4.3729,4.3811,4.3852,0,0,0,4.3482,4.3501,4.3509,4.3511,4.3522,4.3538,4.3536,4.355,4.3548,4.3566,4.3569,4.3726,4.3729,4.3806,4.3844,4.3902,0,0,0,4.3499,4.3586,4.3511,4.3605,4.3522,4.3592,4.3535,4.3586,4.3612,4.3568,4.3727,4.373,4.3805,4.3839,4.3897,4.3954,4.3981,0,0,4.3624,4.3602,4.3655,4.3589,4.3678,4.3586,4.3689,4.3686,4.3664,4.371,4.3713,4.3813,4.3843,4.3901,4.4126,4.4147,0,0,0,4.3704,4.3742,4.376,4.3786,4.3787,4.379,4.3769,4.3769,4.3806,4.3693,4.3849,4.3867,4.3899,4.3925,4.3944,4.3969,4.3744,4.3743,4.3743,4.3919,4.3885,4.3969,4.3938,4.3964,4.3942,4.396,4.3955,4.3913,4.3951,4.3964,4.4104,4.4136,4.4149,4.4177,4.3993,4.3993,4.3993,4.3994,4.4098,4.4145,4.4088,4.4149,4.4113,4.4164,4.4146,4.4115,4.4157,4.4092,4.4119,4.4049,4.4174,4.4196,4.4,4.3999,4.3998,4.3997,4.3997,4.4233,4.425,4.4248,4.4281,4.4312,4.4277,4.432,4.4286,4.4254,4.4281,4.4289,4.4288,4.4281,4.4288,4.4288,4.4289,4.4289,4.4289,4.429,4.4374,4.4369,4.4409,4.4417,4.4429,4.444,4.442,4.443,4.4433,4.4405,4.4405,4.4359,4.4194,4.4152,4.4297,4.4296,4.4295,4.4294,4.4294,4.4564,4.4516,4.4578,4.459,4.4596,4.4628,4.4584,4.4609,4.4613,4.4635,4.4584,4.4468,4.4443,4.4428,4.4393,4.4592,4.4592,4.4592,4.4592,4.4677,4.4662,4.4717,4.4738,4.4755,4.4722,4.4793,4.4778,4.4755,4.4755,4.4722,4.4673,4.466,4.4642,4.4623,4.4589,4.4834,4.4834,4.4834,4.4792,4.4776,4.4843,4.482,4.4822,4.4826,4.4891,4.4917,4.4881,4.4843,4.4754,4.4744,4.4665,4.4642,4.46,4.457,4.4508,0,0]}]]